Voltar ao catálogo

STARLINK-30979

AtivoComunicaçõesVLEO
NORAD 58485·PAYLOAD·🇺🇸 United States

Lançado Dec 3, 2023 de Cape Canaveral Space Force Station

Loading…

Próximas Passagens (próximas 24 horas)

TLE

AtualizadoSource: CelesTrak SupGP

Época: Sep 14, 2026, 22:20 UTC

1 58485C 23186N   26257.93104167  .00060044  00000+0  21750-2 0  2570
2 58485  42.9997  75.1090 0001429 274.8678 167.9563 15.27546116    18

Acompanhe STARLINK-30979 em tempo real com AllMySat

Download on the App Store